www.pogodaiklimat.ru

Погода и климат >> Архив погоды >> Украина >> Комсомольское


ПОГОДА в Комсомольском

  • Прогноз погоды в Комсомольском
  • Монитор погоды в Комсомольском

АРХИВ ПОГОДЫ в Комсомольском

Время (UTC), дата Ветер
(напр.,м/с)
 
Видим.   Явления Облачность Т
(С)
Тd
(С)
f
(%)
Тe
(С)
Тes
(С)
Комфортность P
(гПа)
Po
(гПа)
Тmin
(С)
Tmax
(С)
R
(мм)
R24
(мм)
S
(см)
03 13.07 СЗ 2 10 км ясно +12.2 +11.0 92 +11 +12 1007.7 996.8
06 13.07 С 1 10 км ясно +18.8 +12.8 68 +21 +31 комфорт 1007.9 997.2 +11.6
09 13.07 С 2 10 км 4/4 1000 м
[Sc diur, vesp]
+23.1 +9.7 43 +25 +35 комфорт 1007.6 997.1
12 13.07 З 2 10 км 4/4 1000 м
[Cu med, cong]
+25.5 +8.8 35 +26 +34 жарко 1007.0 996.6
15 13.07 СЗ 2 10 км 3/3 1000 м
[Cu med, cong]
+24.3 +9.5 39 +25 +27 комфорт 1007.1 996.6
18 13.07 С 2 10 км 8/8 600 м
[Cb cap]
+20.4 +10.9 54 +23 +23 комфорт 1008.7 998.1 +26.0
21 13.07 штиль 0 10 км ясно +16.4 +12.2 76 +16 +16 1009.4 998.6
00 14.07 штиль 0 10 км ясно +13.6 +11.1 85 +13 +13 1009.3 998.4
03 14.07 З 1 10 км ясно +12.7 +11.6 93 +13 +14 1009.8 998.9
06 14.07 СЗ 1 10 км ясно +19.8 +12.7 64 +23 +33 комфорт 1009.8 999.1 +12.0
09 14.07 ЮЗ 1 10 км 5/5 1000 м
[Cu med, cong]
+23.3 +8.0 37 +24 +34 комфорт 1009.1 998.6
12 14.07 СЗ 1 10 км 4/4 1000 м
[Cu med, cong]
+25.8 +6.8 30 +26 +35 жарко 1008.2 997.8
15 14.07 СЗ 1 10 км 3/3 1000 м
[Sc diur, vesp]
+25.6 +6.4 29 +25 +28 комфорт 1007.8 997.4
18 14.07 штиль 0 10 км 4/3 1000 м
[Sc Ci fib]
+22.1 +9.5 45 +24 +24 комфорт 1008.8 998.2 +26.4
21 14.07 СВ 1 10 км ясно +17.7 +11.3 66 +19 +19 1009.0 998.3
00 15.07 СВ 1 10 км 3/0
[Ac trans]
+15.1 +12.2 83 +16 +16 1008.4 997.6
03 15.07 СВ 1 10 км 3/3 600 м
[Sc]
+14.6 +11.8 83 +15 +16 1008.5 997.7
06 15.07 ЮВ 2 10 км ясно +21.3 +12.5 57 +24 +33 комфорт 1008.5 997.9 +14.1
09 15.07 ЮВ 2 10 км 8/8 1000 м
[Cu med, cong]
+27.0 +11.0 37 +28 +31 жарко 1007.4 997.0
12 15.07 В 3 10 км 8/8 600 м
[Cb calv]
+27.9 +8.3 29 +28 +30 жарко 1006.7 996.4
15 15.07 ЮВ 1 10 км 8/6 1000 м
[Cu med, cong Ci fib]
+27.7 +9.1 31 +28 +29 жарко 1006.2 995.9
18 15.07 штиль 0 10 км 9/8 600 м
[Cb cap Ci fib]
+24.3 +11.2 44 +26 +26 жарко 1007.2 996.7 +29.3
21 15.07 штиль 0 10 км 9/0
[Ac As Ci fib]
+19.3 +12.1 63 +20 +20 1007.4 996.7
00 16.07 С 1 10 км 8/0
[Ci fib]
+17.5 +12.3 72 +19 +19 1007.1 996.4
03 16.07 С 1 10 км 10/0
[Ac cast Cs]
+17.7 +10.9 64 +19 +19 1006.4 995.7
06 16.07 ЮВ 2 10 км 9/3 600 м
[Cb cap Ac cast Ci fib]
+20.2 +12.0 59 +23 +26 комфорт 1006.9 996.3 +16.9
09 16.07 ЮВ 1 10 км 10/8 600 м
[Cb cap Ac inh]
+22.4 +14.2 60 +26 +27 жарко 1007.0 996.5
12 16.07 СВ 2 10 км {ливн. осадки} 9/4 600 м
[Cb cap Ac inh Cc]
+23.7 +12.8 50 +26 +30 жарко 1005.9 995.4
15 16.07 В 3 10 км 8/4 600 м
[Cb cap Ac As]
+22.5 +14.2 59 +26 +27 жарко 1006.0 995.5
18 16.07 штиль 0 10 км 3/0
[Ac trans]
+19.6 +14.4 72 +21 +21 комфорт 1006.7 996.1 +24.2 0.0
21 16.07 штиль 0 10 км ясно +16.0 +13.9 87 +16 +16 1006.9 996.1
00 17.07 штиль 0 10 км 8/0
[Ac As Ci fib]
+14.4 +13.5 94 +14 +14 1006.9 996.1
03 17.07 штиль 0 10 км 3/0
[Ci fib]
+14.0 +13.1 94 +14 +14 1006.7 995.9
06 17.07 ЮЗ 1 10 км 3/0
[Ci fib]
+19.8 +15.0 74 +23 +33 комфорт 1006.3 995.7 +13.5
12 17.07 З 3 10 км 4/4 600 м
[Cb calv]
+26.6 +9.7 35 +27 +34 жарко 1005.1 994.7
18 17.07 З 1 10 км ясно +21.8 +10.3 48 +24 +24 комфорт 1006.3 995.7 +27.6
00 18.07 штиль 0 10 км ясно +14.7 +11.3 80 +14 +14 1007.4 996.6
06 18.07 З 2 10 км 8/8 600 м
[Cb cap]
+20.2 +12.4 61 +23 +25 комфорт 1008.1 997.5 +14.2
12 18.07 З 4 10 км 3/3 1000 м
[Cu med, cong]
+25.7 +5.7 28 +25 +31 комфорт 1008.1 997.7
18 18.07 штиль 0 10 км ясно +19.9 +9.4 51 +21 +21 комфорт 1010.8 1000.1 +26.6
00 19.07 штиль 0 10 км ясно +14.3 +9.2 71 +14 +14 1013.0 1002.1
06 19.07 ЮЗ 2 10 км ясно +21.4 +11.1 52 +23 +32 комфорт 1014.3 1003.6 +12.3
18 19.07 штиль 0 10 км 1/0
[Ci fib]
+21.2 +12.1 56 +23 +23 комфорт 1015.7 1005.0 +27.2

 

Местоположение метеостанции Комсомольское (Донецкая область, Украина): широта 49.60 долгота 36.53 высота над уровнем моря 91 м.

В архиве по умолчанию представлена погода в Комсомольском за последнюю неделю. Архивные данные за месяц целиком и за предыдущие месяцы, начиная с января 2011 года, Вы можете получить, выбрав интересующий диапазон дат из раскрывающегося списка и нажав кнопку "Ввод!".


*Определитесь, кто Вы:
робот инопланетянин человек

Внимание! Время в таблицах - всемирное. Для получения местного времени необходимо прибавить поправку, которая равна 2 ч.

Смотрите также архив погоды в соседних городах и на ближайших метеорологических станциях:

Погода в Харькове (Харьковская область, Украина) (50 км)
Погода в Изюме (Харьковская область, Украина) (73 км)
Погода в Лозовой (Харьковская область, Украина) (79 км)
Погода в Великом Бурлуке (Харьковская область, Украина) (80 км)
Погода в Краснограде (Харьковская область, Украина) (82 км)
Погода в Купянске (Харьковская область, Украина) (84 км)
Погода в Золочеве (Львовская область, Украина) (88 км)
Погода в Коломаке (Харьковская область, Украина) (98 км)
Погода в Боходухове (Харьковская область, Украина) (98 км)
Погода в Александрополе (Днепропетровская область, Украина) (111 км)

Пояснения к столбцам:

Ветер - указаны скорость ветра в м/с - средняя за 10 мин, порывы в срок и между сроками (в фигурных скобках) и направление, откуда дует ветер: С - северный, СВ - северо-восточный, В - восточный, ЮВ - юго-восточный, Ю - южный, ЮЗ - юго-западный, З - западный, СЗ - северо-западный.
Видимость - горизонтальная дальность видимости в метрах или километрах. При видимости от 1 до 10 км при отсутствии осадков обычно наблюдается дымка, при ухудшении видимости до 1 км и менее - туман. В сухую погоду видимость может ухудшаться дымом, пылью или мглою.
Явления - указаны атмосферные явления, наблюдавшиеся в срок или в последний час перед сроком; фигурными скобками обозначены явления, наблюдавшиеся между сроками (за 1-3 часа до срока); квадратными скобками обозначены град или гололедные отложения с указанием их диаметра в мм.
Облачность - указаны через наклонную черту общая и нижняя облачность в баллах и высота нижней границы облаков в метрах; квадратными скобками обозначены формы облаков: Ci - перистые, Cs - перисто-слоистые, Cc - перисто-кучевые, Ac - высококучевые, As - высокослоистые, Sc - слоисто-кучевые, Ns - слоисто-дождевые, Cu - кучевые, Cb - кучево-дождевые. Подробнее классификацию облаков см. в Атласе облаков (PDF).
T - Температура воздуха - температура, измеренная на высоте 2 м над землей.
Td - Температура точки росы - температура, при понижении до которой содержащийся в воздухе водяной пар достигнет насыщения.
f - Относительная влажность воздуха - влажноcть воздуха, измеренная на высоте 2 м над землей.
Te - Эффективная температура - температура, которую ощущает одетый по сезону человек в тени. Характеристика душности погоды. При расчете учитывается влияние влажности воздуха и скорости ветра на теплоощущения человека.
Tes - Эффективная температура на солнце - температура, которую ощущает человек, с поправкой на солнечный нагрев. Характеристика знойности погоды. Зависит от высоты солнца над горизонтом, облачности и скорости ветра. Ночью, в пасмурную погоду, а также при ветре 12 м/с и более поправка равна нулю.
P - Атмосферное давление - приведенное к уровню моря атмосферное давление.
Po - Атмосферное давление - измеренное на уровне метеостанции атмосферное давление.
Tmin - Минимальная температура - минимум температуры воздуха на высоте 2 м над землей.
Tmax - Максимальная температура - максимум температуры воздуха на высоте 2 м над землей.
R - Количество осадков - Количество выпавших осадков за период времени, мм. При наведении курсора мыши на число - период времени, за который выпало указанное количество осадков.
R24 - Количество осадков - Количество выпавших осадков за 24 часа, мм.
S - Снежный покров - Высота снежного покрова, см. При наведении курсора мыши на число - состояние снежного покрова и степень покрытия местности в баллах.